Station 44034 - Buoy I01 - Eastern Maine Shelf Image indicating link to RSS feed of recent meteorological observations for station 44034


Conditions at 44034 as of
(7:04 am EDT)
1104 GMT on 06/21/2024:
     

Click on the graph icon in the table below to see a time series plot of the last five days of that observation.

5-day plot - Wind Direction Wind Direction (WDIR): N ( 10 deg true )
5-day plot - Wind Speed Wind Speed (WSPD): 9.7 kts
5-day plot - Wind Gust Wind Gust (GST): 11.7 kts
5-day plot - Wave Height Wave Height (WVHT): 1.6 ft
5-day plot - Dominant Wave Period Dominant Wave Period (DPD): 5 sec
5-day plot - Atmospheric Pressure Atmospheric Pressure (PRES):30.16 in
5-day plot - Air Temperature Air Temperature (ATMP): 59.9 °F
5-day plot - Visibility Visibility (VIS) (0 to 1.6 nmi): 1.6 nmi
5-day plot - Wind Speed at 10 Meters Wind Speed at 10 meters (WSPD10M): 9.7 kts
5-day plot - Wind Speed at 20 Meters Wind Speed at 20 meters (WSPD20M): 11.7 kts
5-day plot -  Wind Speed, Wind Gust and Atmospheric Pressure Combined plot of Wind Speed, Gust, and Air Pressure
Previous observations
TIME
(EDT)
5-day plot - Wind Direction
WDIR
 
5-day plot - Wind Speed
WSPD
kts
5-day plot - Wind Gust
GST
kts
5-day plot - Wave Height
WVHT
ft
5-day plot - Dominant Wave Period
DPD
sec
5-day plot - Average Wave Period
APD
sec
5-day plot - Mean Wave Direction
MWD
 
5-day plot - Atmospheric Pressure
PRES
in
5-day plot - Pressure Tendency
PTDY
in
5-day plot - Air Temperature
ATMP
°F
5-day plot - Water Temperature
WTMP
°F
5-day plot - Dew Point
DEWP
°F
5-day plot - Salinity
SAL
psu
5-day plot - Visibility
VIS
nmi
5-day plot - Tide (above MLLW)
TIDE
ft
2024-06-21 06:04 am N 5.8 7.8 1.6 5--30.15- 58.1--- 1.6-
2024-06-21 05:04 am N 5.8 7.8 1.6 6--30.13- 60.1--- 0.3-
2024-06-21 04:04 am NW 3.9 5.8 1.6 6--30.11- 58.6--- 1.3-
2024-06-21 03:04 am NW 5.8 7.8 2.0 6--30.10- 58.5--- 0.2-
2024-06-21 02:04 amWNW 5.8 7.8 2.0 6--30.10- 56.5--- 0.8-
2024-06-21 01:04 amWSW 11.7 13.6 2.3 6--30.11- 57.6--- 1.5-
2024-06-21 12:04 am W 9.7 11.7 2.0 5--30.10- 58.5--- 1.6-
2024-06-20 11:04 pmWNW 9.7 11.7 2.0 5--30.09- 61.0--- 1.6-
2024-06-20 10:04 pm W 11.7 13.6 2.3 5--30.11- 60.6--- 1.6-
2024-06-20 09:04 pm W 9.7 11.7 2.0 5--30.13- 58.5--- 1.6-
2024-06-20 08:04 pm SW 5.8 7.8 2.3 5--30.12- 61.0--- 0.4-
2024-06-20 07:04 pmNNW 3.9 5.8 2.3 5--30.16- 61.5--- 0.3-
2024-06-20 06:04 pm N 13.6 21.4 2.3 5--30.15- 69.1--- 1.6-
2024-06-20 05:04 pmWSW 9.7 13.6 2.3 5--30.10- 58.8--- 1.6-
2024-06-20 04:04 pm SW 9.7 11.7 2.6 5--30.10- 59.2--- 1.6-
2024-06-20 03:04 pm SW 9.7 11.7 2.6 6--30.13- 57.7--- 1.6-
2024-06-20 02:04 pmWSW 9.7 11.7 2.6 6--30.13- 59.9--- 1.6-
2024-06-20 01:04 pmWSW 9.7 11.7 2.6 6--30.14- 59.7--- 1.6-
2024-06-20 12:04 pmWSW 11.7 13.6 2.6 6--30.15- 58.8--- 1.6-
2024-06-20 11:04 amWSW 13.6 13.6 3.0 6--30.15- 58.3--- 1.6-
2024-06-20 10:04 amWSW 11.7 13.6 3.0 6--30.16- 57.6--- 1.6-
2024-06-20 09:04 amWSW 9.7 11.7 3.3 6--30.16- 56.8--- 1.6-

Disclaimer: Ocean current directions are reported to the nearest 10 degrees and speeds are measured to the nearest whole centimeter per second.

Ocean Current Data for 44034

Unit of Measure:   Time Zone:   
7:04 am EDT 6:04 am EDT 5:04 am EDT
Depth
ft
Dir
°
Speed
kts
Dir
°
Speed
kts
Dir
°
Speed
kts
7 320 0.14190 0.08190 0.37
33 360 0.47 90 0.27310 0.35
46 360 0.25 40 0.14250 0.25
59 350 0.17 60 0.12240 0.27
72 0 0.10 90 0.12240 0.25
85 10 0.10 70 0.14240 0.21
98 0 0.16 60 0.14240 0.19
112 10 0.17 60 0.16250 0.17
125 20 0.19 60 0.21250 0.14
138 20 0.21 60 0.25240 0.08
151 10 0.19 60 0.25180 0.04
164 0 0.17 60 0.23140 0.10
177 10 0.19 60 0.19160 0.14
190 30 0.21 60 0.16170 0.19
203 30 0.21 60 0.17170 0.17
217 40 0.29 70 0.23130 0.16
230 40 0.35 70 0.35120 0.35
243 40 0.41 70 0.52120 0.58
256 50 0.51 70 0.60110 0.52
269 40 0.58 70 0.54 90 0.37
282 30 0.51 50 0.39 80 0.29
295 30 0.51 40 0.33 60 0.23

Previous (up to 48) reports of ocean current data for 44034

Ocean Current Stick Plots are available in metric units only:

All Instruments - 1-day plot - ocean current 1-day plot     3-day plot - ocean current 3-day plot     5-day plot - ocean current 5-day plot